Location: Unspecified
(51.3947°N, 0.0000°E)
Time: 16:36:21
(UTC+00:00)

Tiangong 2 - Pass Details

Date: 03 July 2019
Orbit: 185 x 376 km, 42.8° (Epoch: 19 July)

Event Time Altitude Azimuth Distance (km) Brightness Sun altitude
Exits shadow 02:41:41 10° 189° (S) 1,027 2.7 -8.0°
Maximum altitude 02:42:04 11° 179° (S) 1,003 2.7 -7.9°
Drops below altitude 10° 02:42:41 10° 164° (SSE) 1,025 2.9 -7.9°
Sets 02:45:29 0° 120° (ESE) 1,753 4.5 -7.6°
